Location: Martz Observatory
(42.0083°N, 79.0667°W)
Time: 09:13:51
(UTC-04:00)

Meteor 1-23 Rocket - Visible Passes

Search period start: 18 April 2015 00:00
Search period end: 28 April 2015 00:00
Orbit: 840 x 886 km, 81.3° (Epoch: 17 April)

Date Brightness Start Highest point End Pass type
(mag) Time Alt. Az. Time Alt. Az. Time Alt. Az.
18 Apr 5.7 01:51:17 32° NNE 01:51:17 32° NNE 01:54:21 10° NNE visible
18 Apr 6.0 03:33:33 19° NW 03:33:33 19° NW 03:36:29 10° NNW visible
19 Apr 5.7 01:43:00 32° NNE 01:43:00 32° NNE 01:46:04 10° NNE visible
19 Apr 6.0 03:25:16 19° NW 03:25:16 19° NW 03:28:13 10° NNW visible
20 Apr 5.7 01:34:43 32° NNE 01:34:43 32° NNE 01:37:47 10° NNE visible
20 Apr 6.0 03:16:59 19° NW 03:16:59 19° NW 03:19:57 10° NNW visible
21 Apr 5.7 01:26:25 32° NE 01:26:25 32° NE 01:29:29 10° NNE visible
21 Apr 6.0 03:08:41 19° NW 03:08:41 19° NW 03:11:41 10° NNW visible
22 Apr 5.7 01:18:06 32° NE 01:18:06 32° NE 01:21:12 10° NNE visible
22 Apr 6.0 03:00:22 19° NW 03:00:22 19° NW 03:03:25 10° NNW visible
23 Apr 5.6 01:09:46 32° NE 01:09:46 32° NE 01:12:54 10° NNE visible
23 Apr 6.0 02:52:02 20° NW 02:52:02 20° NW 02:55:09 10° NNW visible
24 Apr 5.6 01:01:26 33° NE 01:01:26 33° NE 01:04:37 10° NNE visible
24 Apr 6.0 02:43:42 20° NW 02:43:42 20° NW 02:46:53 10° NNW visible
25 Apr 5.5 00:53:05 33° NE 00:53:05 33° NE 00:56:20 10° NNE visible
25 Apr 6.0 02:35:20 20° NW 02:35:20 20° NW 02:38:37 10° NNW visible
26 Apr 5.5 00:44:43 34° NE 00:44:43 34° NE 00:48:02 10° NNE visible
26 Apr 6.0 02:26:58 21° NW 02:26:58 21° NW 02:30:21 10° NNW visible
27 Apr 5.4 00:36:20 35° NE 00:36:20 35° NE 00:39:45 10° NNE visible
27 Apr 6.0 02:18:35 21° NW 02:18:35 21° NW 02:22:05 10° NNW visible
